TimeAKST,TemperatureF,Dew PointF,Humidity,Sea Level PressureIn,VisibilityMPH,Wind Direction,Wind SpeedMPH,Gust SpeedMPH,PrecipitationIn,Events,Conditions,WindDirDegrees,DateUTC
12:16 AM,42.8,39.2,87,30.33,5.0,South,6.9,-,N/A,,Overcast,190,2011-12-03 09:16:00
12:36 AM,42.8,39.2,87,30.34,3.0,South,5.8,-,N/A,,Overcast,190,2011-12-03 09:36:00
12:56 AM,42.8,39.2,87,30.35,3.0,South,4.6,-,N/A,,Overcast,180,2011-12-03 09:56:00
1:16 AM,42.8,39.2,87,30.35,3.0,SSE,4.6,-,N/A,,Overcast,150,2011-12-03 10:16:00
1:36 AM,42.8,39.2,87,30.35,10.0,SE,6.9,-,N/A,,Overcast,130,2011-12-03 10:36:00
1:56 AM,42.8,39.2,87,30.36,10.0,SE,8.1,16.1,N/A,,Overcast,140,2011-12-03 10:56:00
2:16 AM,42.8,39.2,87,30.36,4.0,SSE,5.8,-,N/A,,Overcast,150,2011-12-03 11:16:00
2:36 AM,42.8,39.2,87,30.37,3.0,SSW,5.8,-,N/A,,Overcast,210,2011-12-03 11:36:00
2:56 AM,42.8,39.2,87,30.37,3.0,SSE,4.6,-,N/A,,Overcast,150,2011-12-03 11:56:00
3:16 AM,42.8,39.2,87,30.38,3.0,South,4.6,-,N/A,,Overcast,170,2011-12-03 12:16:00
3:36 AM,42.8,39.2,87,30.38,4.0,SE,6.9,-,N/A,,Overcast,130,2011-12-03 12:36:00
3:56 AM,42.8,39.2,87,30.39,3.0,SE,5.8,-,N/A,,Overcast,140,2011-12-03 12:56:00
4:16 AM,41.0,39.2,93,30.39,3.0,SE,8.1,-,N/A,,Overcast,140,2011-12-03 13:16:00
4:36 AM,41.0,39.2,93,30.39,2.5,SE,5.8,-,N/A,,Overcast,130,2011-12-03 13:36:00
5:16 AM,41.0,39.2,93,30.41,3.0,SE,3.5,-,N/A,,Overcast,140,2011-12-03 14:16:00
5:36 AM,41.0,39.2,93,30.41,3.0,Calm,Calm,-,N/A,,Overcast,0,2011-12-03 14:36:00
5:56 AM,41.0,39.2,93,30.41,3.0,Calm,Calm,-,N/A,,Overcast,0,2011-12-03 14:56:00
6:16 AM,41.0,39.2,93,30.42,3.0,ESE,3.5,-,N/A,,Overcast,120,2011-12-03 15:16:00
6:36 AM,41.0,39.2,93,30.43,3.0,SE,3.5,-,N/A,,Overcast,140,2011-12-03 15:36:00
6:56 AM,41.0,39.2,93,30.43,2.0,Calm,Calm,-,N/A,,Overcast,0,2011-12-03 15:56:00
7:16 AM,41.0,39.2,93,30.44,2.5,Calm,Calm,-,N/A,,Overcast,0,2011-12-03 16:16:00
7:36 AM,41.0,39.2,93,30.45,2.0,Calm,Calm,-,N/A,,Overcast,0,2011-12-03 16:36:00
7:56 AM,39.2,37.4,93,30.46,1.2,Calm,Calm,-,N/A,,Overcast,0,2011-12-03 16:56:00
8:16 AM,39.2,37.4,93,30.47,1.8,Calm,Calm,-,N/A,,Overcast,0,2011-12-03 17:16:00
8:36 AM,39.2,37.4,93,30.48,0.8,Calm,Calm,-,N/A,,Overcast,0,2011-12-03 17:36:00
8:56 AM,41.0,37.4,87,30.48,1.2,ESE,4.6,-,N/A,,Overcast,110,2011-12-03 17:56:00
9:16 AM,41.0,39.2,93,30.49,1.2,ESE,3.5,-,N/A,,Overcast,110,2011-12-03 18:16:00
9:36 AM,41.0,39.2,93,30.50,1.0,SSE,4.6,-,N/A,,Overcast,150,2011-12-03 18:36:00
9:56 AM,41.0,39.2,93,30.51,2.5,SE,6.9,-,N/A,,Overcast,130,2011-12-03 18:56:00
10:16 AM,41.0,39.2,93,30.52,2.5,SSE,3.5,-,N/A,,Overcast,150,2011-12-03 19:16:00
10:36 AM,42.8,39.2,87,30.52,1.5,ESE,4.6,-,N/A,,Overcast,120,2011-12-03 19:36:00
11:16 AM,41.0,39.2,93,30.53,3.0,SE,5.8,-,N/A,,Overcast,130,2011-12-03 20:16:00
11:36 AM,42.8,39.2,87,30.54,3.0,ESE,6.9,-,N/A,,Overcast,120,2011-12-03 20:36:00
11:56 AM,42.8,39.2,87,30.55,2.0,ESE,4.6,-,N/A,,Overcast,120,2011-12-03 20:56:00
12:16 PM,42.8,39.2,87,30.55,2.5,ESE,6.9,-,N/A,,Overcast,120,2011-12-03 21:16:00
12:36 PM,42.8,39.2,87,30.55,3.0,SE,6.9,-,N/A,,Overcast,130,2011-12-03 21:36:00
12:56 PM,41.0,39.2,93,30.55,3.0,SE,6.9,-,N/A,,Overcast,130,2011-12-03 21:56:00
1:16 PM,41.0,39.2,93,30.55,2.0,SE,8.1,-,N/A,,Overcast,130,2011-12-03 22:16:00
1:36 PM,41.0,39.2,93,30.55,1.8,ESE,8.1,-,N/A,,Overcast,120,2011-12-03 22:36:00
1:56 PM,41.0,39.2,93,30.55,4.0,ESE,8.1,-,N/A,,Overcast,120,2011-12-03 22:56:00
2:16 PM,41.0,39.2,93,30.55,9.0,ESE,5.8,-,N/A,,Overcast,110,2011-12-03 23:16:00
2:36 PM,41.0,39.2,93,30.55,10.0,East,5.8,-,N/A,,Overcast,100,2011-12-03 23:36:00
2:56 PM,41.0,39.2,93,30.55,10.0,East,3.5,-,N/A,,Overcast,90,2011-12-03 23:56:00
3:16 PM,41.0,37.4,87,30.55,10.0,East,3.5,-,N/A,,Overcast,80,2011-12-04 00:16:00
3:36 PM,39.2,37.4,93,30.55,10.0,East,3.5,-,N/A,,Overcast,100,2011-12-04 00:36:00
3:56 PM,39.2,37.4,93,30.55,10.0,Calm,Calm,-,N/A,,Overcast,0,2011-12-04 00:56:00
4:16 PM,39.2,37.4,93,30.55,10.0,Calm,Calm,-,N/A,,Mostly Cloudy,0,2011-12-04 01:16:00
4:36 PM,39.2,37.4,93,30.56,10.0,Calm,Calm,-,N/A,,Overcast,0,2011-12-04 01:36:00
4:56 PM,39.2,37.4,93,30.56,10.0,Calm,Calm,-,N/A,,Mostly Cloudy,0,2011-12-04 01:56:00
5:16 PM,37.4,35.6,93,30.55,2.0,Calm,Calm,-,N/A,,Clear,0,2011-12-04 02:16:00
5:36 PM,35.6,33.8,93,30.56,9.0,Calm,Calm,-,N/A,,Clear,0,2011-12-04 02:36:00
5:56 PM,35.6,33.8,93,30.56,6.0,NNW,3.5,-,N/A,,Clear,340,2011-12-04 02:56:00
6:16 PM,33.8,30.2,87,30.56,9.0,Calm,Calm,-,N/A,,Mostly Cloudy,0,2011-12-04 03:16:00
6:36 PM,35.6,32.0,87,30.57,10.0,NNE,3.5,-,N/A,,Overcast,20,2011-12-04 03:36:00
6:56 PM,35.6,33.8,93,30.57,10.0,NW,4.6,-,N/A,,Overcast,320,2011-12-04 03:56:00
7:16 PM,35.6,33.8,93,30.57,10.0,NNW,3.5,-,N/A,,Overcast,340,2011-12-04 04:16:00
7:36 PM,35.6,33.8,93,30.57,10.0,Calm,Calm,-,N/A,,Overcast,0,2011-12-04 04:36:00
7:56 PM,35.6,33.8,93,30.57,10.0,Calm,Calm,-,N/A,,Overcast,0,2011-12-04 04:56:00
8:16 PM,35.6,33.8,93,30.58,10.0,Calm,Calm,-,N/A,,Overcast,0,2011-12-04 05:16:00
8:36 PM,35.6,33.8,93,30.58,10.0,Calm,Calm,-,N/A,,Overcast,0,2011-12-04 05:36:00
8:56 PM,35.6,33.8,93,30.58,9.0,Calm,Calm,-,N/A,,Overcast,0,2011-12-04 05:56:00
9:16 PM,35.6,33.8,93,30.59,5.0,Calm,Calm,-,N/A,,Overcast,0,2011-12-04 06:16:00
9:36 PM,35.6,33.8,93,30.59,4.0,Calm,Calm,-,N/A,,Overcast,0,2011-12-04 06:36:00
9:56 PM,35.6,33.8,93,30.58,4.0,Calm,Calm,-,N/A,,Overcast,0,2011-12-04 06:56:00
10:16 PM,35.6,33.8,93,30.58,9.0,Calm,Calm,-,N/A,,Overcast,0,2011-12-04 07:16:00
10:36 PM,35.6,33.8,93,30.58,4.0,Calm,Calm,-,N/A,,Overcast,0,2011-12-04 07:36:00
10:56 PM,35.6,33.8,93,30.58,2.5,Calm,Calm,-,N/A,,Overcast,0,2011-12-04 07:56:00
11:36 PM,35.6,33.8,93,30.57,2.5,Calm,Calm,-,N/A,,Overcast,0,2011-12-04 08:36:00
11:56 PM,35.6,33.8,93,30.58,2.5,NNW,4.6,-,N/A,,Overcast,330,2011-12-04 08:56:00